Time,TemperatureF,DewpointF,PressureIn,WindDirection,WindDirectionDegrees,WindSpeedMPH,WindSpeedGustMPH,Humidity,HourlyPrecipIn,Conditions,Clouds,dailyrainin,SoftwareType,DateUTC
2013-01-04 00:26:00,67.7,66.0,30.10,SW,217,0.0,-999.0,94,-99.99,,,0.00,weatherlink.com 1.10,2013-01-04 05:26:00,
2013-01-04 00:41:00,67.7,66.0,30.09,SW,217,0.0,-999.0,94,-99.99,,,0.00,weatherlink.com 1.10,2013-01-04 05:41:00,
2013-01-04 00:56:00,67.5,66.0,30.09,SW,217,0.0,-999.0,94,-99.99,,,0.00,weatherlink.com 1.10,2013-01-04 05:56:00,
2013-01-04 01:11:00,67.3,66.0,30.10,SW,217,0.0,-999.0,94,-99.99,,,0.00,weatherlink.com 1.10,2013-01-04 06:11:00,
2013-01-04 01:26:00,67.0,66.0,30.10,West,273,1.0,-999.0,95,-99.99,,,0.00,weatherlink.com 1.10,2013-01-04 06:26:00,
2013-01-04 01:41:00,66.8,65.0,30.09,West,278,0.0,-999.0,95,-99.99,,,0.00,weatherlink.com 1.10,2013-01-04 06:41:00,
2013-01-04 01:56:00,66.5,65.0,30.09,West,277,0.0,-999.0,95,-99.99,,,0.00,weatherlink.com 1.10,2013-01-04 06:56:00,
2013-01-04 02:11:00,66.2,65.0,30.09,West,277,0.0,-999.0,95,-99.99,,,0.00,weatherlink.com 1.10,2013-01-04 07:11:00,
2013-01-04 02:26:00,66.1,65.0,30.10,West,277,0.0,-999.0,95,-99.99,,,0.00,weatherlink.com 1.10,2013-01-04 07:26:00,
2013-01-04 02:41:00,66.1,65.0,30.10,West,277,0.0,-999.0,96,-99.99,,,0.00,weatherlink.com 1.10,2013-01-04 07:41:00,
2013-01-04 02:56:00,66.2,65.0,30.10,West,279,0.0,-999.0,96,-99.99,,,0.00,weatherlink.com 1.10,2013-01-04 07:56:00,
2013-01-04 03:11:00,65.9,65.0,30.10,West,279,0.0,-999.0,95,-99.99,,,0.00,weatherlink.com 1.10,2013-01-04 08:11:00,
2013-01-04 03:26:00,65.5,64.0,30.10,West,279,0.0,-999.0,96,-99.99,,,0.00,weatherlink.com 1.10,2013-01-04 08:26:00,
2013-01-04 03:41:00,65.9,65.0,30.10,West,278,0.0,-999.0,96,-99.99,,,0.00,weatherlink.com 1.10,2013-01-04 08:41:00,
2013-01-04 03:56:00,66.0,65.0,30.10,West,278,0.0,-999.0,96,-99.99,,,0.00,weatherlink.com 1.10,2013-01-04 08:56:00,
2013-01-04 04:11:00,65.9,65.0,30.10,West,279,0.0,-999.0,96,-99.99,,,0.00,weatherlink.com 1.10,2013-01-04 09:11:00,
2013-01-04 04:26:00,65.9,65.0,30.10,NW,311,0.0,-999.0,96,-99.99,,,0.00,weatherlink.com 1.10,2013-01-04 09:26:00,
2013-01-04 04:41:00,65.9,65.0,30.10,NW,311,0.0,-999.0,96,-99.99,,,0.00,weatherlink.com 1.10,2013-01-04 09:41:00,
2013-01-04 04:56:00,65.9,65.0,30.10,NW,311,0.0,-999.0,96,-99.99,,,0.00,weatherlink.com 1.10,2013-01-04 09:56:00,
2013-01-04 05:11:00,65.8,65.0,30.11,NW,311,0.0,-999.0,96,-99.99,,,0.00,weatherlink.com 1.10,2013-01-04 10:11:00,
2013-01-04 05:26:00,65.8,65.0,30.11,NW,311,0.0,-999.0,96,-99.99,,,0.00,weatherlink.com 1.10,2013-01-04 10:26:00,
2013-01-04 05:41:00,65.7,65.0,30.11,NW,311,0.0,-999.0,96,-99.99,,,0.00,weatherlink.com 1.10,2013-01-04 10:41:00,
2013-01-04 05:56:00,65.4,64.0,30.11,NW,311,0.0,-999.0,96,-99.99,,,0.00,weatherlink.com 1.10,2013-01-04 10:56:00,
2013-01-04 06:11:00,65.3,65.0,30.12,NW,311,0.0,-999.0,97,-99.99,,,0.00,weatherlink.com 1.10,2013-01-04 11:11:00,
2013-01-04 06:26:00,65.0,64.0,30.12,NW,311,0.0,-999.0,97,-99.99,,,0.00,weatherlink.com 1.10,2013-01-04 11:26:00,
2013-01-04 06:41:00,65.6,65.0,30.13,NW,313,0.0,-999.0,97,-99.99,,,0.00,weatherlink.com 1.10,2013-01-04 11:41:00,
2013-01-04 06:56:00,66.1,65.0,30.13,NW,313,0.0,-999.0,97,-99.99,,,0.00,weatherlink.com 1.10,2013-01-04 11:56:00,
2013-01-04 07:11:00,66.2,65.0,30.14,NW,313,0.0,-999.0,97,-99.99,,,0.00,weatherlink.com 1.10,2013-01-04 12:11:00,
2013-01-04 07:26:00,66.4,66.0,30.14,NW,313,0.0,-999.0,97,-99.99,,,0.00,weatherlink.com 1.10,2013-01-04 12:26:00,
2013-01-04 07:41:00,66.7,66.0,30.15,NW,318,0.0,-999.0,97,-99.99,,,0.00,weatherlink.com 1.10,2013-01-04 12:41:00,
2013-01-04 07:56:00,67.4,66.0,30.16,NW,317,1.0,-999.0,96,-99.99,,,0.00,weatherlink.com 1.10,2013-01-04 12:56:00,
2013-01-04 08:11:00,68.0,67.0,30.17,NNW,344,1.0,-999.0,96,-99.99,,,0.00,weatherlink.com 1.10,2013-01-04 13:11:00,
2013-01-04 08:26:00,68.7,67.0,30.17,NNW,331,0.0,-999.0,95,-99.99,,,0.00,weatherlink.com 1.10,2013-01-04 13:26:00,
2013-01-04 08:41:00,69.4,68.0,30.18,NNW,327,1.0,-999.0,94,-99.99,,,0.00,weatherlink.com 1.10,2013-01-04 13:41:00,
2013-01-04 08:56:00,70.5,68.0,30.18,NNW,333,0.0,-999.0,92,-99.99,,,0.00,weatherlink.com 1.10,2013-01-04 13:56:00,
2013-01-04 09:12:00,71.4,68.0,30.19,NW,322,4.0,-999.0,90,-99.99,,,0.00,weatherlink.com 1.10,2013-01-04 14:12:00,
2013-01-04 09:27:00,72.5,69.0,30.19,NW,306,2.0,-999.0,89,-99.99,,,0.00,weatherlink.com 1.10,2013-01-04 14:27:00,
2013-01-04 09:42:00,73.7,70.0,30.19,ENE,59,1.0,-999.0,88,-99.99,,,0.00,weatherlink.com 1.10,2013-01-04 14:42:00,
2013-01-04 09:57:00,74.9,71.0,30.19,NNW,344,0.0,-999.0,86,-99.99,,,0.00,weatherlink.com 1.10,2013-01-04 14:57:00,
2013-01-04 10:12:00,75.9,71.0,30.19,West,263,1.0,-999.0,85,-99.99,,,0.00,weatherlink.com 1.10,2013-01-04 15:12:00,
2013-01-04 10:27:00,76.6,72.0,30.19,West,280,0.0,-999.0,84,-99.99,,,0.00,weatherlink.com 1.10,2013-01-04 15:27:00,
2013-01-04 10:42:00,77.5,72.0,30.18,NNW,342,4.0,-999.0,82,-99.99,,,0.00,weatherlink.com 1.10,2013-01-04 15:42:00,
2013-01-04 10:57:00,77.1,71.0,30.18,WNW,289,2.0,-999.0,81,-99.99,,,0.00,weatherlink.com 1.10,2013-01-04 15:57:00,
2013-01-04 11:12:00,77.6,71.0,30.18,NNW,334,2.0,-999.0,80,-99.99,,,0.00,weatherlink.com 1.10,2013-01-04 16:12:00,
2013-01-04 11:27:00,78.4,71.0,30.18,WNW,288,0.0,-999.0,79,-99.99,,,0.00,weatherlink.com 1.10,2013-01-04 16:27:00,
2013-01-04 11:42:00,79.4,72.0,30.17,WNW,299,4.0,-999.0,77,-99.99,,,0.00,weatherlink.com 1.10,2013-01-04 16:42:00,
2013-01-04 11:57:00,79.3,71.0,30.17,SW,223,1.0,-999.0,76,-99.99,,,0.00,weatherlink.com 1.10,2013-01-04 16:57:00,
2013-01-04 12:12:00,78.4,71.0,30.16,SW,234,0.0,-999.0,79,-99.99,,,0.00,weatherlink.com 1.10,2013-01-04 17:12:00,
2013-01-04 12:27:00,79.0,71.0,30.15,WSW,253,1.0,-999.0,77,-99.99,,,0.00,weatherlink.com 1.10,2013-01-04 17:27:00,
2013-01-04 12:42:00,79.2,70.0,30.14,West,279,3.0,-999.0,74,-99.99,,,0.00,weatherlink.com 1.10,2013-01-04 17:42:00,
2013-01-04 13:12:00,80.7,70.0,30.13,NW,304,2.0,-999.0,70,-99.99,,,0.00,weatherlink.com 1.10,2013-01-04 18:12:00,
2013-01-04 13:27:00,81.2,70.0,30.12,North,360,0.0,-999.0,68,-99.99,,,0.00,weatherlink.com 1.10,2013-01-04 18:27:00,
2013-01-04 13:42:00,81.6,70.0,30.12,WNW,296,1.0,-999.0,68,-99.99,,,0.00,weatherlink.com 1.10,2013-01-04 18:42:00,
2013-01-04 13:57:00,82.6,70.0,30.12,SW,233,0.0,-999.0,66,-99.99,,,0.00,weatherlink.com 1.10,2013-01-04 18:57:00,
2013-01-04 14:12:00,82.0,70.0,30.11,West,277,1.0,-999.0,67,-99.99,,,0.00,weatherlink.com 1.10,2013-01-04 19:12:00,
2013-01-04 14:27:00,82.4,70.0,30.11,West,259,1.0,-999.0,66,-99.99,,,0.00,weatherlink.com 1.10,2013-01-04 19:27:00,
2013-01-04 14:42:00,83.9,70.0,30.11,NNW,329,0.0,-999.0,63,-99.99,,,0.00,weatherlink.com 1.10,2013-01-04 19:42:00,
2013-01-04 14:57:00,84.9,70.0,30.11,WSW,243,1.0,-999.0,62,-99.99,,,0.00,weatherlink.com 1.10,2013-01-04 19:57:00,
2013-01-04 15:12:00,85.3,72.0,30.11,SSE,166,4.0,-999.0,64,-99.99,,,0.00,weatherlink.com 1.10,2013-01-04 20:12:00,
2013-01-04 15:27:00,82.5,71.0,30.11,ESE,105,2.0,-999.0,69,-99.99,,,0.00,weatherlink.com 1.10,2013-01-04 20:27:00,
2013-01-04 15:42:00,80.3,71.0,30.11,East,98,1.0,-999.0,74,-99.99,,,0.00,weatherlink.com 1.10,2013-01-04 20:42:00,
2013-01-04 16:12:00,77.8,71.0,30.12,East,86,1.0,-999.0,79,-99.99,,,0.00,weatherlink.com 1.10,2013-01-04 21:12:00,
2013-01-04 16:27:00,78.1,71.0,30.12,SSE,159,2.0,-999.0,79,-99.99,,,0.00,weatherlink.com 1.10,2013-01-04 21:27:00,
2013-01-04 16:42:00,77.2,71.0,30.13,NE,49,3.0,-999.0,80,-99.99,,,0.00,weatherlink.com 1.10,2013-01-04 21:42:00,
2013-01-04 16:57:00,76.3,70.0,30.13,SE,126,2.0,-999.0,81,-99.99,,,0.00,weatherlink.com 1.10,2013-01-04 21:57:00,
2013-01-04 17:12:00,75.8,70.0,30.14,ENE,63,1.0,-999.0,82,-99.99,,,0.00,weatherlink.com 1.10,2013-01-04 22:12:00,
2013-01-04 17:27:00,75.4,70.0,30.14,East,95,0.0,-999.0,82,-99.99,,,0.00,weatherlink.com 1.10,2013-01-04 22:27:00,
2013-01-04 17:42:00,75.2,69.0,30.14,ESE,115,5.0,-999.0,82,-99.99,,,0.00,weatherlink.com 1.10,2013-01-04 22:42:00,
2013-01-04 17:58:00,74.9,69.0,30.15,East,82,0.0,-999.0,83,-99.99,,,0.00,weatherlink.com 1.10,2013-01-04 22:58:00,
2013-01-04 18:12:00,74.5,69.0,30.15,ENE,71,4.0,-999.0,84,-99.99,,,0.00,weatherlink.com 1.10,2013-01-04 23:12:00,
2013-01-04 18:27:00,74.1,70.0,30.16,NNE,24,1.0,-999.0,87,-99.99,,,0.00,weatherlink.com 1.10,2013-01-04 23:27:00,
2013-01-04 18:42:00,73.7,70.0,30.17,ENE,74,0.0,-999.0,88,-99.99,,,0.00,weatherlink.com 1.10,2013-01-04 23:42:00,
2013-01-04 18:58:00,73.4,70.0,30.18,ENE,61,1.0,-999.0,89,-99.99,,,0.00,weatherlink.com 1.10,2013-01-04 23:58:00,
2013-01-04 19:13:00,73.2,70.0,30.18,NE,55,2.0,-999.0,89,-99.99,,,0.00,weatherlink.com 1.10,2013-01-05 00:13:00,
2013-01-04 19:28:00,72.8,70.0,30.18,NE,55,1.0,-999.0,89,-99.99,,,0.00,weatherlink.com 1.10,2013-01-05 00:28:00,
2013-01-04 19:43:00,72.4,69.0,30.19,NE,40,1.0,-999.0,89,-99.99,,,0.00,weatherlink.com 1.10,2013-01-05 00:43:00,
2013-01-04 19:58:00,72.3,69.0,30.20,NNE,22,1.0,-999.0,89,-99.99,,,0.00,weatherlink.com 1.10,2013-01-05 00:58:00,
2013-01-04 20:13:00,72.3,69.0,30.20,NNW,340,0.0,-999.0,89,-99.99,,,0.00,weatherlink.com 1.10,2013-01-05 01:13:00,
2013-01-04 20:28:00,72.2,69.0,30.20,NNE,24,0.0,-999.0,89,-99.99,,,0.00,weatherlink.com 1.10,2013-01-05 01:28:00,
2013-01-04 20:43:00,71.8,69.0,30.21,North,349,1.0,-999.0,90,-99.99,,,0.00,weatherlink.com 1.10,2013-01-05 01:43:00,
2013-01-04 20:58:00,71.4,68.0,30.21,NE,47,0.0,-999.0,90,-99.99,,,0.00,weatherlink.com 1.10,2013-01-05 01:58:00,
2013-01-04 21:13:00,71.1,68.0,30.21,NW,322,2.0,-999.0,91,-99.99,,,0.00,weatherlink.com 1.10,2013-01-05 02:13:00,
2013-01-04 21:28:00,70.7,68.0,30.21,NNE,19,1.0,-999.0,92,-99.99,,,0.00,weatherlink.com 1.10,2013-01-05 02:28:00,
2013-01-04 21:43:00,70.5,68.0,30.22,NE,40,1.0,-999.0,92,-99.99,,,0.00,weatherlink.com 1.10,2013-01-05 02:43:00,
2013-01-04 21:58:00,70.2,68.0,30.22,NNW,332,1.0,-999.0,92,-99.99,,,0.00,weatherlink.com 1.10,2013-01-05 02:58:00,
2013-01-04 22:13:00,70.1,68.0,30.21,NE,51,1.0,-999.0,92,-99.99,,,0.00,weatherlink.com 1.10,2013-01-05 03:13:00,
2013-01-04 22:28:00,70.0,68.0,30.21,NW,317,1.0,-999.0,92,-99.99,,,0.00,weatherlink.com 1.10,2013-01-05 03:28:00,
2013-01-04 22:43:00,69.9,68.0,30.21,NE,34,1.0,-999.0,92,-99.99,,,0.00,weatherlink.com 1.10,2013-01-05 03:43:00,
2013-01-04 22:58:00,69.7,67.0,30.21,North,351,1.0,-999.0,92,-99.99,,,0.00,weatherlink.com 1.10,2013-01-05 03:58:00,
2013-01-04 23:13:00,69.4,67.0,30.21,NE,43,0.0,-999.0,92,-99.99,,,0.00,weatherlink.com 1.10,2013-01-05 04:13:00,
2013-01-04 23:28:00,69.1,67.0,30.21,NNE,27,1.0,-999.0,93,-99.99,,,0.00,weatherlink.com 1.10,2013-01-05 04:28:00,
2013-01-04 23:43:00,68.7,67.0,30.20,NNW,329,0.0,-999.0,93,-99.99,,,0.00,weatherlink.com 1.10,2013-01-05 04:43:00,
2013-01-04 23:58:00,68.4,66.0,30.20,NNW,331,0.0,-999.0,93,-99.99,,,0.00,weatherlink.com 1.10,2013-01-05 04:58:00,